Regional Weather Roundup
Issued by NWS

Home | Current Version | Previous Version | Text Only | Print | Product List | Glossary On
Versions: 1 2 3 4 5 6 7 8 9 10 11 12 13 14 15 16 17 18 19 20 21 22 23 24 25 26 27 28 29 30 31 32 33 34 35 36 37 38 39 40 41 42 43 44 45 46 47
000
ASUS45 KCYS 050210
RWRWY

WYOMING REGIONAL WEATHER ROUNDUP
NATIONAL WEATHER SERVICE CHEYENNE WY
800 PM MDT FRI SEP 04 2015

NOTE:  "FAIR" INDICATES FEW OR NO CLOUDS BELOW 12,000 FEET
WITH NO SIGNIFICANT WEATHER AND/OR OBSTRUCTIONS TO VISIBILITY.

WYZ001-050300-
YELLOWSTONE NATIONAL PARK

CITY           SKY/WX    TMP DP  RH WIND       PRES   REMARKS
LK YELLOWSTONE   N/A     51  40  65 CALM      30.00F
W YELLOWSTONE  NOT AVBL

$$
WYZ002>013-054>058-071-098>099-050300-
NORTHERN WYOMING

CITY           SKY/WX    TMP DP  RH WIND       PRES   REMARKS
JACKSON        MOCLDY    66  32  28 SW14G24   29.85F
CODY           FAIR      57  45  62 N13G21    29.91R
GREYBULL       FAIR      71  45  39 NW20G29   29.80R
WORLAND        LGT RAIN  71  47  42 NE14G23   29.83R
SHERIDAN       LGT RAIN  69  48  47 NW13      29.88R
BUFFALO        FAIR      69  47  45 N13       29.92R
GILLETTE       FAIR      68  54  60 E8        29.86F
HULETT         FAIR      73  54  49 E7        29.86F
NEWCASTLE      FAIR      81  37  21 MISG      29.86R THUNDER

$$
WYZ014>020-022>026-101>103-050300-
CENTRAL WYOMING

CITY           SKY/WX    TMP DP  RH WIND       PRES   REMARKS
BIG PINEY      LGT RAIN  69  32  25 S18G24    29.95R
PINEDALE       CLOUDY    68  28  22 SE14G31   29.97R
DUBOIS         FAIR      68  19  15 SW12      29.92S
LANDER         FAIR      73  37  27 NW6       29.83S
RIVERTON       LGT RAIN  74  39  28 SW7       29.86R
CASPER         MOCLDY    62  54  74 S7        29.93F
DOUGLAS        FAIR      70  47  43 NW13G22   29.94R

$$
WYZ021-027>030-104>119-050300-
SOUTHERN WYOMING

CITY           SKY/WX    TMP DP  RH WIND       PRES   REMARKS
EVANSTON       FAIR      66  31  27 S12       29.94S
KEMMERER       FAIR      63  34  34 SE10      29.97S
FORT BRIDGER   CLEAR     64  37  36 S18       29.98S
ROCK SPRINGS   MOCLDY    56  48  74 NW3       30.03F
DIXON          FAIR      64  49  59 E10       30.05S
RAWLINS        FAIR      57  50  77 E10       30.05R
SARATOGA       FAIR      55  46  71 E3        30.07F
LARAMIE        CLOUDY    63  45  51 SW7       30.10S
CHEYENNE       FAIR      68  47  46 NW5       30.01F
TORRINGTON     FAIR      80  45  28 SE9       29.86R
PINE BLUFFS    MOCLDY    72  41  33 W3        29.95F

$$


USA.gov is the U.S. government's official web portal to all federal, state and local government web resources and services.